CZ-2C DEB, 40264

Orbit data source: Space-Track

CZ-2C DEB, 40264 is space debris in SSO originally from a launch on Sun, 28 Sep 2014 UTC launched from the Jiuquan Satellite Launch Center, China (JSC). Debris objects in space refer to the collection of defunct objects orbiting the Earth. Examples of debris include non-operational satellites, rocket bodies, and fragments generated from explosions, collisions, or faulty payload assembly.

Loading next visibility...
Identifier
40264, 2014-059D
Orbit
SSO
Country
Flag of CNCN / PRC
Related business
Manufacturer
CALT
Mission
Spacecraft
Bus & Motor
Unknown
Mass
1 kg wet, 1 kg dry
Launch date (UTC)
2014-09-28 (12 years ago)
Launch vehicle
Unknown
Launch site
Jiuquan Satellite Launch Center, China (JSC)
Object type
Payload
Rocket body
Debris
Shape & HBR
Cone, 0.1 m
Radar Cross Section
0.025 m², Medium (>0.1 m² and < 1m²)

Expand to show TLE details & history
Last TLE update: 2 days ago

TLE from 2 days ago
0 CZ-2C DEB
1 40264U 14059D   26171.29864573  .00012877  00000-0  11094-2 0  9998
2 40264  97.8214  72.5151 0051031 114.4572 246.1984 14.96445978623624
Epoch: 2026-06-20T07:10Z
TLE epoch observation values (Epoch: 2026-06-20T07:10:02.991Z)
Latitude
-0.00002°
Longitude
56.48737°
Altitude
595.415 km
Speed
7.554 km/s
True Right ascension
04h 50m 03s
True Declination
0° 00' 00"
Sunlit
Object was in daylight at epoch
Visualization orbit readout
Latitude
Unknown
Longitude
Unknown
Altitude
Unknown
Speed
Unknown
Apparent Right ascension
Unknown
Apparent Declination
Unknown
Sunlit
N/A
Visualization observer readout
Local Sidereal Time
21:35:53
Azimuth
Unknown
Elevation
Unknown
Doppler factor
Unknown
Orbital elements
Apogee altitude
610.386 km
Perigee altitude
539.421 km
Semi-major axis
6,953.04 km
Eccentricity
0.0051
Inclination
97.8214°
RAAN
72.5151°
Arg. of periapsis
114.4572°
True anomaly
245.66475°
Mean anomaly
246.1984°
Eccentric anomaly
245.93143°
Mean motion
3.74353 °/min
Orbital period
96.17 mins
BSTAR
0.0011094
Loading maneuver chart data...
Computing Atmospheric mass density...
Loading historical data...
Loading historical data...
Loading historical data...
Loading historical data...
Loading historical data...
Loading historical data...
Loading historical data...
Other satellites on launch #59 in the year 2014 (2014-09-28 UTC)

Documentation

Showing up to 5 results
|